User: anonymous
Location: Arrakis Observatory
(44.1122°N, 95.7153°W)
Time: 15:24:54
(UTC-05:00)
Language:

Iridium 35 - Orbit

View from above orbital plane
View from above orbital plane
View from above satellite
View from above satellite

Ground track
Ground track

The orbit data is extracted from the following two-line orbital elements,

1 24966U 97056B   14266.37560231  .00000440  00000-0  14999-3 0    17
2 24966 086.4009 015.7754 0002279 111.4431 248.7008 14.34216600889517
Epoch (UTC): 23 September 2014 09:00:52
Eccentricity: 0.0002279
inclination: 86.4009°
perigee height: 776 km
apogee height: 779 km
right ascension of ascending node: 15.7754°
argument of perigee: 111.4431°
revolutions per day: 14.34216600
mean anomaly at epoch: 248.7008°
orbit number at epoch: 88951

The dashed part of the orbit path shows where the satellite is in the earth's shadow,  

DLR